Location: Unspecified
(0.0000°N, 0.0000°E)
Time: 00:04:26
(UTC+00:00)

STARLINK-1054 - Pass Details

Date: 21 January 2020
Orbit: 546 x 548 km, 53.1° (Epoch: 15 January)

Event Time Altitude Azimuth Distance (km) Brightness Sun altitude
Rises 04:58:05 0° 207° (SSW) 2,708 7.1 -17.1°
Reaches altitude 10° 05:00:21 10° 203° (SSW) 1,813 6.2 -16.6°
Maximum altitude 05:04:24 57° 124° (SE) 645 4.3 -15.6°
Drops below altitude 10° 05:08:25 10° 45° (NE) 1,803 6.6 -14.7°
Sets 05:10:40 0° 41° (NE) 2,693 7.4 -14.2°
